[[{"header":{"parameterUnit":"m.s-1","parameterCategory":1,"la1":30.2991,"la2":30.254,"lo1":-89.0895,"lo2":-89.0444,"dy":0.0017,"dx":0.0017,"nx":28,"ny":28,"refTime":"2024-07-06T03:00:00:Z","depth":0,"parameterNumber":2,"parameterNumberName":"U-component_of_WINDS"},"data":[0,0,0,0,0,0,0,0,0,0,0,0,0,0,0,0,0,0,0,0,0,0,0,0,0,0,0,0,0,0,0,0,0,0,0,0,0,0,0,0,0,0,0,0,0,0,0,0,0,0,0,0,0,0,0,0,0,0,1.5605,1.5606,0,1.5705,1.5706,1.5707,1.5774,1.5774,1.5775,1.5775,1.5881,1.5883,1.5885,0,0,0,0,0,0,0,0,0,0,0,0,0,1.5475,1.5477,1.5605,1.5606,1.5607,1.5704,1.5706,1.5707,1.5774,1.5775,1.5775,1.5776,1.588,1.5883,1.5885,0,0,0,0,0,0,0,0,0,0,0,0,0,1.5549,1.5478,1.5604,1.5652,1.5657,1.5704,1.5706,1.5708,1.5774,1.5775,1.5775,1.5776,1.5879,1.5882,1.5886,1.5894,0,0,1.5897,1.5898,0,0,0,0,0,0,0,0,1.5544,1.5553,1.5644,1.5649,1.5655,1.5728,1.5699,1.577,1.5774,1.573,1.5775,1.5776,1.5829,1.5837,1.5854,1.5899,1.5903,1.5897,1.5899,1.5901,1.5902,0,0,0,0,0,0,0,1.5539,1.555,1.5644,1.5645,1.5652,1.567,1.5681,1.5713,1.5774,1.5734,1.5739,1.5749,1.5832,1.5851,1.5857,1.5905,1.5897,1.59,1.5902,1.5904,1.5963,1.5963,0,0,0,0,0,0,1.5526,1.5545,1.5641,1.5647,1.56,1.5671,1.5684,1.5704,1.5774,1.5786,1.5749,1.5752,1.5844,1.5853,1.5861,1.5876,1.5901,1.5904,1.5906,1.5964,1.5963,1.5962,0,0,0,0,0,0,1.5523,1.5534,1.5637,1.5598,1.5612,1.5673,1.5694,1.5705,1.5723,1.5786,1.5797,1.5756,1.5845,1.5856,1.5885,1.5881,1.5906,1.5909,1.5964,1.5963,1.5963,1.5905,0,0,0,0,0,0,1.5519,1.5533,1.5535,1.5597,1.5614,1.5658,1.5694,1.5707,1.5729,1.5734,1.5795,1.5806,1.5847,1.588,1.5889,1.5886,1.5912,1.5965,1.5964,1.5963,1.5908,1.5903,1.5898,0,0,0,0,0,1.5514,1.5516,1.5535,1.5546,1.5618,1.5658,1.5668,1.5713,1.5728,1.5732,1.5773,1.5804,1.588,1.5882,1.5893,1.5891,1.5966,1.5964,1.5963,1.591,1.5904,1.5898,0,0,0,0,0,0,1.5452,1.5524,1.5547,1.5568,1.5606,1.5669,1.5675,1.5705,1.574,1.5744,1.58,1.5813,1.5837,1.5867,1.5869,1.5904,1.5927,1.5928,1.5883,1.5877,1.5872,1.5864,1.5915,0,0,0,0,0,1.5441,1.5466,1.5528,1.5541,1.5559,1.5613,1.5632,1.5664,1.5707,1.5723,1.5766,1.5806,1.584,1.586,1.5894,1.5913,1.5928,1.5917,1.5912,1.5908,1.5908,1.5922,1.5918,1.5958,1.5958,1.5958,0,0,1.5418,1.546,1.5473,1.5529,1.5563,1.5589,1.5627,1.5652,1.5672,1.5728,1.5757,1.579,1.584,1.5864,1.5877,1.589,1.59,1.5906,1.5903,1.5905,1.592,1.5916,1.5913,1.5958,1.5958,1.5958,0,0,1.5389,1.5423,1.5438,1.5471,1.5521,1.5557,1.5561,1.562,1.5643,1.5674,1.5717,1.5742,1.5798,1.5831,1.5856,1.5841,1.5872,1.5851,1.5825,1.5838,1.5834,1.5832,1.5827,1.5825,1.5851,1.5851,1.5851,0,1.5354,1.5393,1.5442,1.5465,1.5489,1.554,1.5556,1.5586,1.5645,1.5661,1.5675,1.5746,1.5783,1.5816,1.5813,1.5831,1.5838,1.5844,1.5831,1.5829,1.5827,1.5823,1.5821,1.5848,1.5848,1.5848,1.5849,0,1.5349,1.5376,1.5382,1.5436,1.5462,1.5481,1.5533,1.5553,1.5583,1.5619,1.5651,1.5697,1.5741,1.5752,1.5782,1.579,1.5797,1.582,1.5844,1.582,1.5817,1.5816,1.5844,1.5845,1.5845,1.5846,0,0,1.5282,1.5364,1.5366,1.5392,1.5451,1.5474,1.5496,1.5539,1.5555,1.5595,1.5616,1.5662,1.5684,1.5712,1.5747,1.5758,1.5744,1.578,1.5782,1.5772,1.5757,1.5739,1.5736,1.5765,1.5765,1.5765,1.5753,0,1.5262,1.5304,1.5349,1.5376,1.5402,1.5452,1.5472,1.5511,1.5545,1.5574,1.5613,1.5644,1.5671,1.5688,1.5701,1.5743,1.5742,1.5744,1.5786,1.5787,1.5772,1.5735,1.5716,1.5702,1.5752,1.5752,1.5752,0,1.5244,1.5281,1.531,1.5368,1.5381,1.5397,1.5441,1.5467,1.5514,1.5538,1.5569,1.5606,1.5634,1.5656,1.5695,1.5696,1.5716,1.574,1.574,1.5746,1.5768,1.574,1.5699,1.5697,1.5751,1.5751,1.5751,0,1.5193,1.525,1.5275,1.5295,1.5364,1.5375,1.5404,1.5451,1.5474,1.5513,1.5529,1.5571,1.5594,1.5626,1.5674,1.5685,1.5709,1.5734,1.5731,1.5729,1.5733,1.5732,1.5695,1.5746,1.5746,1.5746,1.5746,0,1.5166,1.5182,1.5253,1.5268,1.5288,1.534,1.5359,1.5393,1.5434,1.5458,1.5504,1.5526,1.5588,1.5617,1.5655,1.5683,1.5693,1.5714,1.5724,1.571,1.5707,1.5724,1.5726,1.5746,1.5746,1.5746,1.5746,0,1.5112,1.5159,1.519,1.5253,1.5269,1.5281,1.5335,1.5353,1.539,1.542,1.543,1.5489,1.5526,1.5577,1.563,1.5656,1.5679,1.5694,1.5662,1.5668,1.5662,1.5662,1.5634,1.5633,1.5684,1.5684,1.5683,0,1.5091,1.5104,1.5168,1.5187,1.5215,1.5245,1.5269,1.5322,1.5345,1.54,1.5411,1.5452,1.5487,1.5544,1.5593,1.5634,1.5651,1.5639,1.5658,1.5643,1.5651,1.565,1.5652,1.5634,1.5633,1.5632,1.5632,0,1.5049,1.5072,1.5105,1.5146,1.5173,1.5208,1.5246,1.5259,1.532,1.5344,1.5383,1.541,1.5464,1.5504,1.5552,1.5584,1.5618,1.5625,1.5627,1.5612,1.5593,1.5604,1.5649,1.5626,1.5626,1.5627,1.5627,1.5627,1.5011,1.5026,1.5073,1.5108,1.5142,1.5176,1.5196,1.5236,1.5268,1.5316,1.5346,1.5383,1.5431,1.5499,1.5529,1.556,1.5574,1.5576,1.5576,1.5576,1.5571,1.5588,1.5569,1.557,1.557,1.557,1.557,0,1.4972,1.5005,1.5037,1.5088,1.5115,1.5145,1.5188,1.521,1.5241,1.5283,1.5317,1.5361,1.5401,1.5453,1.5497,1.5511,1.5528,1.5521,1.552,1.5527,1.5556,1.5551,1.5507,1.5507,1.5507,1.5507,1.5507,1.5507,1.4954,1.4981,1.501,1.5054,1.5088,1.5124,1.5146,1.5179,1.5212,1.5259,1.5292,1.5326,1.5372,1.542,1.5458,1.5472,1.5486,1.5474,1.5493,1.552,1.5525,1.5531,1.5526,1.5477,1.5477,1.5462,1.5462,1.5462]},{"header":{"parameterUnit":"m.s-1","parameterCategory":1,"la1":30.2991,"la2":30.254,"lo1":-89.0895,"lo2":-89.0444,"dy":0.0017,"dx":0.0017,"nx":28,"ny":28,"refTime":"2024-07-06T03:00:00:Z","depth":0,"parameterNumber":3,"parameterNumberName":"V-component_of_WINDS"},"data":[0,0,0,0,0,0,0,0,0,0,0,0,0,0,0,0,0,0,0,0,0,0,0,0,0,0,0,0,0,0,0,0,0,0,0,0,0,0,0,0,0,0,0,0,0,0,0,0,0,0,0,0,0,0,0,0,0,0,0.1251,0.1252,0,0.1273,0.1273,0.1273,0.1273,0.1273,0.1272,0.1272,0.1293,0.1294,0.1295,0,0,0,0,0,0,0,0,0,0,0,0,0,0.1208,0.1208,0.1251,0.1252,0.1252,0.1273,0.1273,0.1273,0.1273,0.1273,0.1272,0.1272,0.1293,0.1294,0.1295,0,0,0,0,0,0,0,0,0,0,0,0,0,0.1228,0.1209,0.1251,0.1254,0.1255,0.1273,0.1273,0.1273,0.1273,0.1273,0.1272,0.1272,0.1293,0.1294,0.1295,0.1311,0,0,0.1299,0.13,0,0,0,0,0,0,0,0,0.1226,0.1229,0.1254,0.1254,0.1255,0.127,0.1265,0.1286,0.1273,0.1266,0.1272,0.1272,0.1286,0.1288,0.1293,0.1312,0.1313,0.1299,0.13,0.13,0.1301,0,0,0,0,0,0,0,0.1225,0.1228,0.126,0.1254,0.1255,0.1254,0.1256,0.1269,0.1278,0.1267,0.1267,0.1269,0.1286,0.1291,0.1293,0.1314,0.1299,0.13,0.1301,0.1301,0.1345,0.1345,0,0,0,0,0,0,0.1223,0.1227,0.1259,0.126,0.1239,0.1255,0.1257,0.1265,0.1278,0.1279,0.127,0.1269,0.1289,0.1292,0.1294,0.1312,0.13,0.1302,0.1302,0.1344,0.1345,0.1345,0,0,0,0,0,0,0.1222,0.1226,0.1258,0.1244,0.1248,0.1256,0.1265,0.1266,0.1271,0.128,0.1282,0.1274,0.1289,0.1292,0.1306,0.1313,0.1302,0.1303,0.1344,0.1344,0.1345,0.1349,0,0,0,0,0,0,0.1221,0.1226,0.1233,0.1244,0.1249,0.1272,0.1265,0.1267,0.1274,0.1273,0.1284,0.1286,0.1289,0.1304,0.1308,0.1314,0.1304,0.1343,0.1344,0.1345,0.1348,0.135,0.1351,0,0,0,0,0,0.122,0.1234,0.1233,0.1237,0.1258,0.1272,0.1274,0.1278,0.1274,0.1281,0.1286,0.1285,0.1311,0.1306,0.131,0.1316,0.1343,0.1344,0.1345,0.1348,0.1349,0.1351,0,0,0,0,0,0,0.1224,0.1236,0.1235,0.1254,0.1262,0.1272,0.1281,0.128,0.129,0.1289,0.1293,0.1295,0.1309,0.1314,0.1308,0.1331,0.1326,0.1328,0.1328,0.1329,0.133,0.1329,0.1305,0,0,0,0,0,0.1227,0.1238,0.1247,0.1263,0.1267,0.1273,0.1279,0.1281,0.129,0.1293,0.1299,0.1307,0.1317,0.1323,0.1333,0.1349,0.135,0.1355,0.1356,0.1357,0.1359,0.1365,0.1367,0.1348,0.1348,0.1348,0,0,0.1234,0.1242,0.1249,0.1264,0.127,0.128,0.1276,0.1288,0.1295,0.1295,0.1308,0.1313,0.1322,0.1336,0.1343,0.1341,0.1364,0.1358,0.1359,0.136,0.1366,0.1368,0.1369,0.1349,0.1349,0.1348,0,0,0.1252,0.1259,0.1271,0.1277,0.1287,0.129,0.1293,0.1302,0.1305,0.1319,0.1318,0.1326,0.1344,0.1349,0.1354,0.137,0.1369,0.1373,0.1379,0.1385,0.1387,0.1388,0.1392,0.1394,0.1374,0.1374,0.1374,0,0.1259,0.1275,0.1278,0.1289,0.1294,0.1294,0.1305,0.1311,0.1323,0.1327,0.1324,0.1343,0.135,0.1364,0.1368,0.1372,0.1374,0.1372,0.1386,0.1388,0.1389,0.1393,0.1395,0.1374,0.1374,0.1374,0.1374,0,0.1282,0.1293,0.1302,0.1312,0.1319,0.133,0.1334,0.134,0.134,0.1343,0.1356,0.1362,0.1372,0.1376,0.1377,0.139,0.1388,0.1386,0.1381,0.1391,0.1395,0.1396,0.1375,0.1375,0.1375,0.1374,0,0,0.1305,0.1315,0.1318,0.1322,0.1331,0.1339,0.1349,0.1358,0.1362,0.137,0.1377,0.139,0.1387,0.1393,0.1394,0.14,0.1409,0.1397,0.1397,0.1398,0.1422,0.1423,0.1425,0.1409,0.1409,0.1409,0.1421,0,0.1323,0.1341,0.1342,0.1358,0.1367,0.1365,0.1373,0.1379,0.1381,0.1388,0.1391,0.1399,0.1396,0.1399,0.1404,0.1407,0.1414,0.1406,0.1415,0.1415,0.1413,0.1427,0.1429,0.144,0.1422,0.1423,0.1423,0,0.1346,0.1353,0.137,0.1375,0.1378,0.1386,0.1393,0.14,0.1405,0.1407,0.1411,0.1411,0.142,0.1414,0.1425,0.142,0.1423,0.1424,0.1425,0.1426,0.142,0.1428,0.1444,0.1445,0.1425,0.1425,0.1425,0,0.1359,0.1373,0.1384,0.1387,0.1394,0.1399,0.1402,0.1407,0.1411,0.1417,0.1419,0.1426,0.143,0.1434,0.1435,0.1431,0.1445,0.144,0.1446,0.1446,0.1449,0.1449,0.1465,0.1452,0.1452,0.1452,0.1452,0,0.1379,0.1389,0.139,0.1397,0.1407,0.1407,0.1417,0.142,0.1423,0.143,0.1428,0.1434,0.1435,0.144,0.1441,0.1449,0.1451,0.1451,0.1451,0.1451,0.1451,0.1453,0.1452,0.1452,0.1452,0.1452,0.1452,0,0.1396,0.1397,0.1409,0.1413,0.1414,0.1421,0.1425,0.143,0.1431,0.1439,0.1441,0.1443,0.1449,0.145,0.1458,0.1458,0.1467,0.1467,0.1465,0.1465,0.147,0.1469,0.1488,0.149,0.1476,0.1476,0.1476,0,0.1408,0.1415,0.1419,0.1423,0.1426,0.1433,0.1436,0.1436,0.144,0.1445,0.145,0.1456,0.146,0.147,0.1472,0.1476,0.1476,0.1482,0.1477,0.1475,0.1475,0.1474,0.1474,0.1483,0.1483,0.1483,0.1483,0,0.1428,0.1428,0.1434,0.1439,0.1443,0.1448,0.1452,0.1455,0.1455,0.1459,0.1465,0.1468,0.1475,0.148,0.1485,0.1487,0.1485,0.1485,0.1486,0.1486,0.1485,0.1485,0.1467,0.1485,0.1485,0.1484,0.1484,0.1484,0.1442,0.1448,0.1451,0.1457,0.1459,0.1462,0.1467,0.1468,0.1473,0.1479,0.1478,0.1484,0.1486,0.1492,0.1494,0.1498,0.1496,0.1498,0.1499,0.1499,0.1499,0.1484,0.1499,0.1499,0.1499,0.1499,0.1499,0,0.1462,0.1463,0.1468,0.1473,0.1477,0.1474,0.1478,0.1481,0.1486,0.1489,0.1493,0.1498,0.1503,0.1504,0.1508,0.151,0.1509,0.1511,0.1511,0.1511,0.1501,0.1499,0.1512,0.1512,0.1512,0.1512,0.1512,0.1512,0.1472,0.1481,0.148,0.1489,0.149,0.1496,0.1498,0.15,0.1502,0.1508,0.1511,0.1512,0.1513,0.1517,0.152,0.152,0.1521,0.1523,0.1523,0.1513,0.1512,0.1511,0.1509,0.1524,0.1524,0.1532,0.1532,0.1532]}]]